Location: Hawks Ness
(60.2333°N, 1.1667°W)
Time: 06:48:14
(UTC+00:00)

Meteor 1-4 Rocket - Pass Details

Date: 22 October 2019
Orbit: 450 x 503 km, 81.2° (Epoch: 16 November)

Event Time Altitude Azimuth Distance (km) Brightness Sun altitude
Exits shadow 05:50:40 - 233° (SW) 1,903 5.1 -9.3°
Reaches altitude 10° 05:51:30 10° 239° (WSW) 1,595 4.7 -9.2°
Maximum altitude 05:54:31 27° 300° (WNW) 911 3.4 -8.8°
Drops below altitude 10° 05:57:33 10° 360° (N) 1,600 5.1 -8.5°
Sets 05:59:51 0° 13° (NNE) 2,479 6.2 -8.2°
